Regional Weather Roundup
Issued by NWS

Home | Current Version | Previous Version | Graphics & Text | Print | Product List | Glossary On
Versions: 1 2 3 4 5 6 7 8 9 10 11 12 13 14 15 16 17 18 19 20 21 22 23 24 25 26 27 28 29 30 31 32 33 34 35 36 37 38 39 40 41 42 43 44 45 46 47 48 49 50
060
ASUS43 KLMK 221810
RWRKY
KENTUCKY REGIONAL WEATHER ROUNDUP
NATIONAL WEATHER SERVICE LOUISVILLE KY
200 PM EDT FRI SEP 22 2017

NOTE "FAIR" INDICATES FEW OR NO CLOUDS BELOW 12,000 FEET
WITH NO SIGNIFICANT WEATHER AND/OR OBSTRUCTIONS TO VISIBILITY.

KYZ001>023-026-027-061>063-070>075-221900-
WESTERN AND SOUTH CENTRAL KENTUCKY

CITY           SKY/WX    TMP DP  RH WIND       PRES   REMARKS
PADUCAH        SUNNY     90  65  43 SE5       30.04F HX  92
HENDERSON      MOSUNNY   90  70  51 NE8       30.06F HX  95
OWENSBORO      MOSUNNY   89  69  51 E8        30.06F HX  93
HOPKINSVILLE   NOT AVBL
BOWLING GREEN  SUNNY     88  68  51 NE10      30.06F HX  91
GLASGOW        MOSUNNY   88  66  48 E6        30.08F HX  90
$$

KYZ024-025-028>034-038-045-046-053-221900-
NORTH CENTRAL KENTUCKY

CITY           SKY/WX    TMP DP  RH WIND       PRES   REMARKS
LOUISVILLE/SDF MOSUNNY   89  67  47 SE5       30.07F HX  92
LOUISVILLE/LOU PTSUNNY   88  69  53 NE10      30.08F HX  92
FORT KNOX      MOSUNNY   84  68  58 E7        30.07F
$$

KYZ035>037-039>044-047>052-055>060-089>105-221900-
NORTHEAST KENTUCKY

CITY           SKY/WX    TMP DP  RH WIND       PRES   REMARKS
LEXINGTON      MOSUNNY   86  67  52 VRB5      30.10F
COVINGTON      MOSUNNY   88  70  55 VRB3      30.10F HX  93
FRANKFORT      MOSUNNY   88  64  44 VRB7      30.09F
$$

KYZ054-064>069-076>088-106>120-221900-
SOUTHEAST KENTUCKY

CITY           SKY/WX    TMP DP  RH WIND       PRES   REMARKS
JACKSON        MOSUNNY   81  67  62 CALM      30.12F
LONDON         MOSUNNY   85  65  51 E5        30.10F
SOMERSET       MOSUNNY   82  63  51 CALM      30.10F
MIDDLESBORO    SUNNY     84  63  48 NW3       30.09F
MONTICELLO     PTCLDY    85  67  54 VRB6      30.10F
$$





USA.gov is the U.S. government's official web portal to all federal, state and local government web resources and services.